Location: Waco, TX
(31.5480°N, 97.1670°W)
Time: 22:45:46
(UTC-06:00)

ISS - Pass Details

Date: 18 February 2019
Orbit: 403 x 411 km, 51.6° (Epoch: 22 February)

Event Time Altitude Azimuth Distance (km) Brightness Sun altitude
Rises 08:17:15 0° 239° (WSW) 2,304 -0.3 13.3°
Reaches altitude 10° 08:19:23 10° 246° (WSW) 1,448 -1.4 13.7°
Maximum altitude 08:22:28 40° 318° (NW) 604 -3.2 14.3°
Drops below altitude 10° 08:25:35 10° 30° (NNE) 1,455 -0.9 14.9°
Sets 08:27:44 0° 38° (NE) 2,317 0.2 15.3°
